Date String (YYYY-MM-DD hh:mm:ss) UTC,Instrument flags,Ambient pressure (hPa),Sample flow (lpm),Bypass flow (lpm),Sample temperature (°C),Ambient temperature (°C),ASC tube jacket temperature (°C),LED temperature (°C),Box temperature (°C),Sample RH (%),Span deviation,Mass concentration (μg/m³),Mass concentration (μg/m³),Mass concentration (μg/m³)
DateTimeUTC,F1_M11,P_M11,Q1_M11,Q2_M11,T1_M11,T2_M11,T3_M11,T4_M11,T5_M11,U1_M11,ZSPAN_M11,X0_M11,X2_M11,X1_M11
2023-05-10 22:00:00,,0827.3,5.01,0.00,29.8,28.1,00.0,38.3,31.4,26.9,0000.8,0014.36,0009.90,0009.46
2023-05-10 22:01:00,,0827.3,4.99,0.00,29.8,28.1,00.0,38.3,31.5,26.9,0000.7,0013.76,0009.92,0009.47
2023-05-10 22:02:00,,0827.2,4.99,0.00,29.8,28.2,00.0,38.3,31.5,26.8,0000.6,0013.66,0009.91,0009.47
2023-05-10 22:03:00,,0827.1,5.00,0.00,29.8,28.2,00.0,38.3,31.5,26.8,0000.5,0013.49,0009.91,0009.47
2023-05-10 22:04:00,,0827.0,5.01,0.00,29.8,28.3,00.0,38.3,31.5,26.7,0000.6,0013.89,0009.95,0009.48
2023-05-10 22:05:00,,0826.9,5.01,0.00,29.8,28.3,00.0,38.3,31.5,26.7,0000.7,0014.12,0009.98,0009.51
2023-05-10 22:06:00,,0826.9,5.00,0.00,29.9,28.3,00.0,38.3,31.5,26.6,0000.6,0014.18,0010.03,0009.53
2023-05-10 22:07:00,,0826.9,5.00,0.00,29.9,28.3,00.0,38.3,31.5,26.6,0000.2,0014.18,0010.04,0009.53
2023-05-10 22:08:00,,0826.7,5.00,0.00,29.9,28.3,00.0,38.3,31.5,26.5,0000.1,0014.24,0010.05,0009.53
2023-05-10 22:09:00,,0826.6,4.99,0.00,29.9,28.3,00.0,38.3,31.5,26.6,0000.0,0014.29,0010.07,0009.52
2023-05-10 22:10:00,,0826.6,5.00,0.00,29.9,28.3,00.0,38.3,31.5,26.5,0000.1,0014.46,0010.08,0009.54
2023-05-10 22:11:00,,0826.4,5.01,0.00,29.9,28.2,00.0,38.3,31.5,26.6,0000.3,0014.65,0010.08,0009.55
2023-05-10 22:12:00,,0826.3,4.99,0.00,29.9,28.2,00.0,38.3,31.5,26.8,0000.2,0014.62,0010.08,0009.56
2023-05-10 22:13:00,,0826.2,5.00,0.00,29.9,28.2,00.0,38.3,31.5,26.9,0000.4,0014.65,0010.12,0009.58
2023-05-10 22:14:00,,0826.3,5.00,0.00,29.9,28.2,00.0,38.3,31.5,27.0,0000.2,0014.58,0010.15,0009.59
2023-05-10 22:15:00,,0826.5,5.00,0.00,29.9,28.2,00.0,38.3,31.5,26.7,0000.1,0014.59,0010.14,0009.59
2023-05-10 22:16:00,,0826.7,5.00,0.00,29.9,28.2,00.0,38.3,31.5,26.9,-000.1,0014.90,0010.15,0009.57
2023-05-10 22:17:00,,0826.8,5.00,0.00,29.9,28.2,00.0,38.3,31.5,27.2,-000.2,0014.80,0010.12,0009.57
2023-05-10 22:18:00,,0826.8,5.00,0.00,29.8,28.1,00.0,38.3,31.4,27.5,-000.0,0015.25,0010.14,0009.58
2023-05-10 22:19:00,,0826.7,5.00,0.00,29.8,28.0,00.0,38.3,31.3,27.6,0000.0,0015.46,0010.19,0009.60
2023-05-10 22:20:00,,0826.6,5.00,0.00,29.8,28.0,00.0,38.3,31.3,27.4,0000.2,0015.40,0010.17,0009.61
2023-05-10 22:21:00,,0826.6,5.00,0.00,29.8,27.9,00.0,38.3,31.3,27.6,0000.3,0015.24,0010.17,0009.61
2023-05-10 22:22:00,,0826.6,5.00,0.00,29.7,27.8,00.0,38.3,31.3,27.6,0000.2,0015.11,0010.18,0009.62
2023-05-10 22:23:00,,0826.6,5.01,0.00,29.7,27.8,00.0,38.3,31.3,27.4,0000.3,0015.47,0010.19,0009.62
2023-05-10 22:24:00,,0826.6,4.99,0.00,29.7,27.8,00.0,38.3,31.3,27.0,0000.3,0015.94,0010.18,0009.61
2023-05-10 22:25:00,,0826.6,4.99,0.00,29.7,27.8,00.0,38.2,31.3,26.9,0000.5,0016.29,0010.17,0009.62
2023-05-10 22:26:00,,0826.6,5.00,0.00,29.7,27.9,00.0,38.2,31.3,26.8,0000.6,0015.80,0010.12,0009.62
2023-05-10 22:27:00,,0826.6,5.01,0.00,29.7,28.0,00.0,38.2,31.4,26.7,0000.8,0015.25,0010.07,0009.60
2023-05-10 22:28:00,,0826.7,5.00,0.00,29.7,28.0,00.0,38.2,31.4,26.4,0000.8,0015.24,0010.06,0009.58
2023-05-10 22:29:00,,0826.8,4.99,0.00,29.7,28.1,00.0,38.2,31.4,26.3,0000.9,0014.83,0010.06,0009.55
2023-05-10 22:30:00,,0826.9,5.00,0.00,29.8,28.1,00.0,38.2,31.4,26.4,0001.0,0014.78,0010.04,0009.52
2023-05-10 22:31:00,,0827.0,4.99,0.00,29.8,28.2,00.0,38.2,31.4,26.5,0000.7,0014.80,0010.06,0009.53
2023-05-10 22:32:00,,0827.1,5.00,0.00,29.8,28.2,00.0,38.2,31.4,26.5,0000.3,0014.95,0010.06,0009.51
2023-05-10 22:33:00,,0827.2,5.00,0.00,29.8,28.1,00.0,38.2,31.4,26.6,0000.3,0015.26,0010.11,0009.50
2023-05-10 22:34:00,,0827.1,4.99,0.00,29.8,28.1,00.0,38.2,31.4,26.3,0000.3,0015.12,0010.10,0009.47
2023-05-10 22:35:00,,0827.1,5.00,0.00,29.7,28.0,00.0,38.2,31.3,26.2,0000.1,0015.30,0010.10,0009.43
2023-05-10 22:36:00,,0827.1,4.99,0.00,29.7,27.9,00.0,38.2,31.3,26.9,-000.0,0015.15,0010.13,0009.41
2023-05-10 22:37:00,,0827.1,5.01,0.00,29.7,27.9,00.0,38.2,31.3,27.5,0000.1,0015.40,0010.13,0009.40
2023-05-10 22:38:00,,0827.1,5.02,0.00,29.7,27.9,00.0,38.2,31.3,27.6,-000.1,0015.80,0010.15,0009.40
2023-05-10 22:39:00,,0827.1,5.01,0.00,29.7,27.9,00.0,38.2,31.3,27.4,-000.1,0016.61,0010.15,0009.41
2023-05-10 22:40:00,,0827.1,4.99,0.00,29.7,28.0,00.0,38.2,31.4,27.3,0000.1,0016.56,0010.15,0009.43
2023-05-10 22:41:00,,0827.0,4.99,0.00,29.7,28.0,00.0,38.2,31.4,27.3,0000.1,0016.46,0010.15,0009.45
2023-05-10 22:42:00,,0827.1,5.00,0.00,29.7,28.1,00.0,38.2,31.4,27.4,0000.2,0016.42,0010.14,0009.44
2023-05-10 22:43:00,,0827.0,5.01,0.00,29.7,28.1,00.0,38.2,31.4,27.4,0000.5,0016.31,0010.16,0009.46
2023-05-10 22:44:00,,0827.0,5.01,0.00,29.7,28.1,00.0,38.2,31.4,27.3,0000.6,0015.87,0010.10,0009.47
2023-05-10 22:45:00,,0827.0,5.00,0.00,29.7,28.0,00.0,38.2,31.3,27.3,0000.6,0015.82,0010.10,0009.49
2023-05-10 22:46:00,,0827.0,4.99,0.00,29.7,27.9,00.0,38.2,31.3,26.9,0000.6,0015.07,0010.07,0009.49
2023-05-10 22:47:00,,0826.9,5.00,0.00,29.7,27.8,00.0,38.2,31.2,26.4,0000.7,0014.88,0009.96,0009.40
2023-05-10 22:48:00,,0827.0,5.02,0.00,29.6,27.7,00.0,38.2,31.2,26.5,0000.5,0014.52,0009.91,0009.33
2023-05-10 22:49:00,,0826.9,4.99,0.00,29.6,27.7,00.0,38.2,31.1,27.2,0000.7,0014.49,0009.94,0009.32
2023-05-10 22:50:00,,0826.9,4.99,0.00,29.6,27.6,00.0,38.1,31.1,27.2,0000.7,0013.47,0009.91,0009.27
2023-05-10 22:51:00,,0826.8,5.02,0.00,29.5,27.6,00.0,38.1,31.1,27.2,0000.6,0013.45,0009.89,0009.22
2023-05-10 22:52:00,,0826.6,4.98,0.00,29.5,27.6,00.0,38.1,31.1,27.4,0000.4,0013.34,0009.82,0009.17
2023-05-10 22:53:00,,0826.5,4.99,0.00,29.5,27.6,00.0,38.1,31.0,27.4,0000.2,0013.42,0009.80,0009.12
2023-05-10 22:54:00,,0826.4,5.01,0.00,29.5,27.6,00.0,38.1,31.0,27.5,0000.1,0013.39,0009.73,0009.06
2023-05-10 22:55:00,,0826.3,5.01,0.00,29.5,27.6,00.0,38.1,31.1,27.5,0000.1,0013.45,0009.70,0009.01
2023-05-10 22:56:00,,0826.2,5.00,0.00,29.5,27.6,00.0,38.1,31.1,27.4,0000.1,0013.42,0009.64,0008.92
2023-05-10 22:57:00,,0826.2,4.99,0.00,29.5,27.6,00.0,38.0,31.1,27.3,0000.2,0013.28,0009.57,0008.85
2023-05-10 22:58:00,,0826.1,5.00,0.00,29.5,27.6,00.0,38.0,31.1,27.2,0000.2,0013.22,0009.55,0008.83
2023-05-10 22:59:00,,0826.1,5.01,0.00,29.5,27.6,00.0,38.0,31.1,27.3,0000.4,0013.67,0009.53,0008.83
